Simultaneous Nadir Overpasses (SNOs) Predictions

Prediction of SNOs between NOAA-19 and METOP-C Satellite Orbit:

Table of predicted SNOs for the next 14.0 days since TLE Epoch: 7/4/2020
Index Date (NOAA-19) Time (NOAA-19) Lat,Lon (NOAA-19) SZA (NOAA-19 ) Date (METOP-C) Time (METOP-C) Lat,Lon (METOP-C) SZA (METOP-C ) Distance(km) Time Diff (sec)
1 07/08/2020 14:42:32 -80.20, 160.11 121.62 07/08/2020 14:43:39 -80.18, 163.47 121.39 63.71 67
2 07/08/2020 15:33:21 80.06, -30.58 58.39 07/08/2020 15:34:24 80.04, -30.65 58.39 2.31 63
3 07/08/2020 16:24:26 -80.05, 136.71 121.61 07/08/2020 16:25:05 -80.05, 136.78 121.60 1.50 39
4 07/08/2020 17:15:21 80.05, -55.90 58.40 07/08/2020 17:15:45 80.06, -55.81 58.42 2.18 24
5 07/08/2020 18:06:26 -80.04, 111.39 121.60 07/08/2020 18:06:27 -80.04, 111.32 121.61 1.33 1
6 07/08/2020 18:57:21 80.03, -81.22 58.41 07/08/2020 18:57:07 80.05, -81.28 58.41 1.95 14
7 07/08/2020 19:48:27 -80.05, 85.75 121.59 07/08/2020 19:47:49 -80.03, 85.85 121.62 3.22 38
8 07/08/2020 20:39:22 80.04,-106.86 58.42 07/08/2020 20:38:29 80.03,-106.75 58.40 2.32 53
